Year,Month,Day,Hour,Minute,Value (Times are PST for windgust in km/hr)
2019,09,29,00,00,1.60
2019,09,29,00,01,1.60
2019,09,29,00,02,1.60
2019,09,29,00,03,1.60
2019,09,29,00,04,1.60
2019,09,29,00,12,1.60
2019,09,29,00,13,1.60
2019,09,29,00,26,1.60
2019,09,29,00,30,1.60
2019,09,29,00,31,1.60
2019,09,29,00,32,1.60
2019,09,29,00,33,1.60
2019,09,29,00,34,1.60
2019,09,29,00,35,1.60
2019,09,29,00,36,1.60
2019,09,29,00,58,1.60
2019,09,29,00,59,1.60
2019,09,29,01,01,1.60
2019,09,29,01,02,1.60
2019,09,29,01,04,1.60
2019,09,29,01,06,1.60
2019,09,29,01,08,1.60
2019,09,29,01,16,1.60
2019,09,29,01,17,1.60
2019,09,29,01,18,1.60
2019,09,29,01,19,1.60
2019,09,29,01,20,1.60
2019,09,29,01,21,1.60
2019,09,29,01,22,1.60
2019,09,29,01,23,1.60
2019,09,29,01,27,1.60
2019,09,29,01,28,1.60
2019,09,29,01,35,1.60
2019,09,29,01,37,1.60
2019,09,29,01,38,1.60
2019,09,29,01,42,1.60
2019,09,29,01,43,1.60
2019,09,29,01,44,1.60
2019,09,29,01,45,1.60
2019,09,29,01,46,1.60
2019,09,29,01,47,1.60
2019,09,29,01,48,1.60
2019,09,29,01,49,1.60
2019,09,29,02,02,1.60
2019,09,29,02,03,1.60
2019,09,29,02,04,1.60
2019,09,29,02,11,1.60
2019,09,29,02,13,1.60
2019,09,29,02,14,1.60
2019,09,29,02,16,1.60
2019,09,29,02,29,1.60
2019,09,29,02,37,1.60
2019,09,29,02,38,1.60
2019,09,29,02,47,1.60
2019,09,29,02,54,1.60
2019,09,29,02,55,1.60
2019,09,29,02,56,1.60
2019,09,29,02,59,1.60
2019,09,29,03,00,1.60
2019,09,29,03,03,1.60
2019,09,29,03,04,1.60
2019,09,29,03,05,1.60
2019,09,29,03,06,1.60
2019,09,29,03,08,1.60
2019,09,29,03,09,1.60
2019,09,29,03,12,1.60
2019,09,29,03,13,1.60
2019,09,29,03,14,1.60
2019,09,29,03,19,1.60
2019,09,29,03,20,1.60
2019,09,29,03,27,1.60
2019,09,29,03,28,1.60
2019,09,29,03,35,1.60
2019,09,29,03,36,1.60
2019,09,29,03,38,1.60
2019,09,29,03,39,1.60
2019,09,29,03,40,1.60
2019,09,29,04,04,1.60
2019,09,29,04,09,1.60
2019,09,29,04,10,1.60
2019,09,29,04,11,1.60
2019,09,29,04,12,1.60
2019,09,29,04,13,1.60
2019,09,29,04,20,1.60
2019,09,29,04,21,1.60
2019,09,29,04,27,1.60
2019,09,29,04,28,1.60
2019,09,29,04,29,1.60
2019,09,29,04,31,1.60
2019,09,29,04,33,1.60
2019,09,29,04,34,1.60
2019,09,29,04,35,1.60
2019,09,29,04,38,1.60
2019,09,29,04,39,1.60
2019,09,29,04,40,1.60
2019,09,29,04,41,3.20
2019,09,29,04,42,3.20
2019,09,29,04,43,3.20
2019,09,29,04,44,3.20
2019,09,29,04,45,3.20
2019,09,29,04,46,1.60
2019,09,29,04,47,1.60
2019,09,29,04,49,3.20
2019,09,29,04,50,4.80
2019,09,29,04,51,3.20
2019,09,29,04,52,1.60
2019,09,29,04,55,1.60
2019,09,29,04,56,3.20
2019,09,29,04,57,3.20
2019,09,29,04,58,1.60
2019,09,29,04,59,1.60
2019,09,29,05,01,1.60
2019,09,29,05,03,1.60
2019,09,29,05,04,1.60
2019,09,29,05,05,3.20
2019,09,29,05,06,3.20
2019,09,29,05,07,3.20
2019,09,29,05,08,3.20
2019,09,29,05,09,1.60
2019,09,29,05,10,3.20
2019,09,29,05,11,3.20
2019,09,29,05,12,1.60
2019,09,29,05,13,1.60
2019,09,29,05,15,1.60
2019,09,29,05,16,3.20
2019,09,29,05,17,1.60
2019,09,29,05,18,1.60
2019,09,29,05,19,1.60
2019,09,29,05,21,1.60
2019,09,29,05,22,1.60
2019,09,29,05,23,1.60
2019,09,29,05,24,3.20
2019,09,29,05,25,3.20
2019,09,29,05,26,3.20
2019,09,29,05,27,3.20
2019,09,29,05,28,1.60
2019,09,29,05,29,3.20
2019,09,29,05,30,3.20
2019,09,29,05,31,1.60
2019,09,29,05,32,3.20
2019,09,29,05,33,3.20
2019,09,29,05,34,3.20
2019,09,29,05,35,3.20
2019,09,29,05,36,3.20
2019,09,29,05,37,1.60
2019,09,29,05,38,1.60
2019,09,29,05,39,3.20
2019,09,29,05,40,3.20
2019,09,29,05,41,1.60
2019,09,29,05,42,4.80
2019,09,29,05,43,4.80
2019,09,29,05,44,3.20
2019,09,29,05,45,4.80
2019,09,29,05,46,3.20
2019,09,29,05,47,3.20
2019,09,29,05,48,1.60
2019,09,29,05,49,1.60
2019,09,29,05,50,3.20
2019,09,29,05,51,3.20
2019,09,29,05,52,3.20
2019,09,29,05,53,3.20
2019,09,29,05,54,3.20
2019,09,29,05,55,3.20
2019,09,29,05,56,3.20
2019,09,29,05,57,1.60
2019,09,29,05,58,1.60
2019,09,29,05,59,3.20
2019,09,29,06,00,3.20
2019,09,29,06,01,3.20
2019,09,29,06,02,3.20
2019,09,29,06,03,3.20
2019,09,29,06,04,1.60
2019,09,29,06,05,1.60
2019,09,29,06,08,1.60
2019,09,29,06,10,1.60
2019,09,29,06,11,1.60
2019,09,29,06,12,1.60
2019,09,29,06,18,1.60
2019,09,29,06,19,1.60
2019,09,29,06,20,3.20
2019,09,29,06,21,1.60
2019,09,29,06,22,3.20
2019,09,29,06,23,3.20
2019,09,29,06,24,1.60
2019,09,29,06,25,1.60
2019,09,29,06,26,1.60
2019,09,29,06,27,4.80
2019,09,29,06,28,3.20
2019,09,29,06,29,1.60
2019,09,29,06,30,1.60
2019,09,29,06,31,1.60
2019,09,29,06,32,1.60
2019,09,29,06,33,3.20
2019,09,29,06,34,3.20
2019,09,29,06,35,1.60
2019,09,29,06,36,1.60
2019,09,29,06,37,3.20
2019,09,29,06,38,1.60
2019,09,29,06,39,3.20
2019,09,29,06,40,3.20
2019,09,29,06,41,3.20
2019,09,29,06,42,1.60
2019,09,29,06,44,1.60
2019,09,29,06,45,1.60
2019,09,29,06,46,1.60
2019,09,29,06,47,1.60
2019,09,29,06,48,3.20
2019,09,29,06,49,3.20
2019,09,29,06,50,3.20
2019,09,29,06,51,3.20
2019,09,29,06,52,3.20
2019,09,29,06,53,3.20
2019,09,29,06,54,3.20
2019,09,29,06,55,3.20
2019,09,29,06,56,1.60
2019,09,29,06,57,4.80
2019,09,29,06,58,4.80
2019,09,29,06,59,3.20
2019,09,29,07,00,3.20
2019,09,29,07,01,3.20
2019,09,29,07,02,3.20
2019,09,29,07,03,4.80
2019,09,29,07,04,3.20
2019,09,29,07,05,8.10
2019,09,29,07,06,6.40
2019,09,29,07,07,1.60
2019,09,29,07,08,6.40
2019,09,29,07,09,6.40
2019,09,29,07,10,6.40
2019,09,29,07,11,4.80
2019,09,29,07,12,3.20
2019,09,29,07,13,3.20
2019,09,29,07,14,3.20
2019,09,29,07,15,3.20
2019,09,29,07,16,6.40
2019,09,29,07,17,3.20
2019,09,29,07,18,3.20
2019,09,29,07,19,4.80
2019,09,29,07,20,3.20
2019,09,29,07,21,4.80
2019,09,29,07,22,6.40
2019,09,29,07,23,6.40
2019,09,29,07,24,4.80
2019,09,29,07,25,6.40
2019,09,29,07,26,6.40
2019,09,29,07,27,3.20
2019,09,29,07,28,4.80
2019,09,29,07,29,6.40
2019,09,29,07,30,6.40
2019,09,29,07,31,6.40
2019,09,29,07,32,4.80
2019,09,29,07,33,4.80
2019,09,29,07,34,4.80
2019,09,29,07,35,1.60
2019,09,29,07,36,3.20
2019,09,29,07,37,3.20
2019,09,29,07,38,3.20
2019,09,29,07,39,3.20
2019,09,29,07,40,4.80
2019,09,29,07,41,9.60
2019,09,29,07,42,9.60
2019,09,29,07,43,6.40
2019,09,29,07,44,3.20
2019,09,29,07,45,3.20
2019,09,29,07,46,6.40
2019,09,29,07,47,3.20
2019,09,29,07,48,3.20
2019,09,29,07,49,3.20
2019,09,29,07,50,6.40
2019,09,29,07,51,4.80
2019,09,29,07,52,1.60
2019,09,29,07,54,1.60
2019,09,29,07,55,1.60
2019,09,29,07,58,3.20
2019,09,29,07,59,3.20
2019,09,29,08,00,1.60
2019,09,29,08,01,1.60
2019,09,29,08,02,6.40
2019,09,29,08,03,6.40
2019,09,29,08,04,9.60
2019,09,29,08,05,8.10
2019,09,29,08,06,1.60
2019,09,29,08,07,3.20
2019,09,29,08,08,4.80
2019,09,29,08,09,4.80
2019,09,29,08,10,1.60
2019,09,29,08,11,3.20
2019,09,29,08,12,3.20
2019,09,29,08,13,4.80
2019,09,29,08,14,1.60
2019,09,29,08,15,1.60
2019,09,29,08,16,3.20
2019,09,29,08,17,4.80
2019,09,29,08,18,9.60
2019,09,29,08,19,8.10
2019,09,29,08,20,3.20
2019,09,29,08,21,4.80
2019,09,29,08,22,3.20
2019,09,29,08,23,1.60
2019,09,29,08,24,1.60
2019,09,29,08,25,4.80
2019,09,29,08,26,4.80
2019,09,29,08,27,3.20
2019,09,29,08,28,3.20
2019,09,29,08,29,3.20
2019,09,29,08,30,1.60
2019,09,29,08,31,3.20
2019,09,29,08,32,4.80
2019,09,29,08,33,8.10
2019,09,29,08,34,9.60
2019,09,29,08,35,6.40
2019,09,29,08,36,4.80
2019,09,29,08,37,3.20
2019,09,29,08,38,8.10
2019,09,29,08,39,4.80
2019,09,29,08,40,3.20
2019,09,29,08,41,3.20
2019,09,29,08,42,1.60
2019,09,29,08,45,1.60
2019,09,29,08,46,4.80
2019,09,29,08,47,3.20
2019,09,29,08,48,3.20
2019,09,29,08,49,1.60
2019,09,29,08,50,1.60
2019,09,29,08,51,1.60
2019,09,29,08,52,3.20
2019,09,29,08,53,1.60
2019,09,29,08,54,1.60
2019,09,29,08,55,1.60
2019,09,29,08,56,1.60
2019,09,29,08,57,3.20
2019,09,29,08,58,3.20
2019,09,29,08,59,1.60
2019,09,29,09,00,1.60
2019,09,29,09,01,1.60
2019,09,29,09,02,1.60
2019,09,29,09,03,1.60
2019,09,29,09,04,1.60
2019,09,29,09,05,1.60
2019,09,29,09,06,1.60
2019,09,29,09,12,1.60
2019,09,29,09,13,1.60
2019,09,29,09,15,1.60
2019,09,29,09,16,1.60
2019,09,29,09,17,1.60
2019,09,29,09,18,1.60
2019,09,29,09,19,1.60
2019,09,29,09,20,3.20
2019,09,29,09,21,3.20
2019,09,29,09,22,1.60
2019,09,29,09,23,1.60
2019,09,29,09,24,3.20
2019,09,29,09,25,1.60
2019,09,29,09,26,3.20
2019,09,29,09,27,3.20
2019,09,29,09,28,3.20
2019,09,29,09,29,3.20
2019,09,29,09,30,1.60
2019,09,29,09,31,3.20
2019,09,29,09,32,3.20
2019,09,29,09,33,1.60
2019,09,29,09,34,3.20
2019,09,29,09,35,3.20
2019,09,29,09,36,3.20
2019,09,29,09,37,1.60
2019,09,29,09,38,3.20
2019,09,29,09,39,1.60
2019,09,29,09,40,3.20
2019,09,29,09,41,3.20
2019,09,29,09,42,6.40
2019,09,29,09,43,3.20
2019,09,29,09,44,1.60
2019,09,29,09,45,3.20
2019,09,29,09,46,3.20
2019,09,29,09,47,3.20
2019,09,29,09,48,3.20
2019,09,29,09,49,9.60
2019,09,29,09,50,6.40
2019,09,29,09,51,1.60
2019,09,29,09,54,3.20
2019,09,29,09,55,6.40
2019,09,29,09,56,4.80
2019,09,29,09,57,1.60
2019,09,29,09,58,1.60
2019,09,29,09,59,3.20
2019,09,29,10,00,3.20
2019,09,29,10,01,3.20
2019,09,29,10,02,3.20
2019,09,29,10,03,3.20
2019,09,29,10,04,3.20
2019,09,29,10,05,6.40
2019,09,29,10,06,6.40
2019,09,29,10,07,4.80
2019,09,29,10,08,4.80
2019,09,29,10,09,1.60
2019,09,29,10,10,3.20
2019,09,29,10,11,3.20
2019,09,29,10,12,11.30
2019,09,29,10,13,6.40
2019,09,29,10,14,6.40
2019,09,29,10,15,3.20
2019,09,29,10,16,3.20
2019,09,29,10,17,3.20
2019,09,29,10,18,4.80
2019,09,29,10,19,6.40
2019,09,29,10,20,6.40
2019,09,29,10,21,4.80
2019,09,29,10,22,6.40
2019,09,29,10,23,6.40
2019,09,29,10,24,4.80
2019,09,29,10,25,4.80
2019,09,29,10,26,3.20
2019,09,29,10,27,4.80
2019,09,29,10,28,6.40
2019,09,29,10,29,3.20
2019,09,29,10,30,1.60
2019,09,29,10,31,6.40
2019,09,29,10,32,6.40
2019,09,29,10,33,6.40
2019,09,29,10,34,6.40
2019,09,29,10,35,4.80
2019,09,29,10,36,4.80
2019,09,29,10,37,9.60
2019,09,29,10,38,8.10
2019,09,29,10,39,4.80
2019,09,29,10,40,4.80
2019,09,29,10,41,6.40
2019,09,29,10,42,6.40
2019,09,29,10,43,6.40
2019,09,29,10,44,6.40
2019,09,29,10,45,1.60
2019,09,29,10,46,6.40
2019,09,29,10,47,11.30
2019,09,29,10,48,6.40
2019,09,29,10,49,3.20
2019,09,29,10,50,6.40
2019,09,29,10,51,8.10
2019,09,29,10,52,9.60
2019,09,29,10,53,6.40
2019,09,29,10,54,6.40
2019,09,29,10,55,4.80
2019,09,29,10,56,3.20
2019,09,29,10,57,4.80
2019,09,29,10,58,4.80
2019,09,29,10,59,4.80
2019,09,29,11,00,6.40
2019,09,29,11,01,4.80
2019,09,29,11,02,4.80
2019,09,29,11,03,4.80
2019,09,29,11,04,4.80
2019,09,29,11,05,4.80
2019,09,29,11,06,9.60
2019,09,29,11,07,8.10
2019,09,29,11,08,3.20
2019,09,29,11,09,4.80
2019,09,29,11,10,6.40
2019,09,29,11,11,4.80
2019,09,29,11,12,6.40
2019,09,29,11,13,6.40
2019,09,29,11,14,1.60
2019,09,29,11,15,4.80
2019,09,29,11,16,4.80
2019,09,29,11,17,3.20
2019,09,29,11,18,1.60
2019,09,29,11,19,1.60
2019,09,29,11,20,4.80
2019,09,29,11,21,6.40
2019,09,29,11,22,9.60
2019,09,29,11,23,4.80
2019,09,29,11,24,9.60
2019,09,29,11,25,11.30
2019,09,29,11,26,6.40
2019,09,29,11,27,6.40
2019,09,29,11,28,8.10
2019,09,29,11,29,6.40
2019,09,29,11,30,3.20
2019,09,29,11,31,3.20
2019,09,29,11,32,3.20
2019,09,29,11,33,12.90
2019,09,29,11,34,8.10
2019,09,29,11,35,11.30
2019,09,29,11,36,9.60
2019,09,29,11,37,9.60
2019,09,29,11,38,4.80
2019,09,29,11,39,4.80
2019,09,29,11,40,4.80
2019,09,29,11,41,6.40
2019,09,29,11,42,9.60
2019,09,29,11,43,9.60
2019,09,29,11,44,4.80
2019,09,29,11,45,8.10
2019,09,29,11,46,6.40
2019,09,29,11,47,6.40
2019,09,29,11,48,3.20
2019,09,29,11,49,4.80
2019,09,29,11,50,4.80
2019,09,29,11,51,11.30
2019,09,29,11,52,6.40
2019,09,29,11,53,8.10
2019,09,29,11,54,6.40
2019,09,29,11,55,8.10
2019,09,29,11,56,9.60
2019,09,29,11,57,11.30
2019,09,29,11,58,14.50
2019,09,29,11,59,8.10
2019,09,29,12,00,8.10
2019,09,29,12,01,12.90
2019,09,29,12,02,4.80
2019,09,29,12,03,4.80
2019,09,29,12,04,6.40
2019,09,29,12,05,11.30
2019,09,29,12,06,14.50
2019,09,29,12,07,4.80
2019,09,29,12,08,11.30
2019,09,29,12,09,6.40
2019,09,29,12,10,8.10
2019,09,29,12,11,8.10
2019,09,29,12,12,6.40
2019,09,29,12,13,4.80
2019,09,29,12,14,11.30
2019,09,29,12,15,9.60
2019,09,29,12,16,9.60
2019,09,29,12,17,6.40
2019,09,29,12,18,8.10
2019,09,29,12,19,6.40
2019,09,29,12,20,11.30
2019,09,29,12,21,6.40
2019,09,29,12,22,3.20
2019,09,29,12,23,4.80
2019,09,29,12,24,14.50
2019,09,29,12,25,12.90
2019,09,29,12,26,6.40
2019,09,29,12,27,8.10
2019,09,29,12,28,3.20
2019,09,29,12,29,9.60
2019,09,29,12,30,9.60
2019,09,29,12,31,14.50
2019,09,29,12,32,8.10
2019,09,29,12,33,8.10
2019,09,29,12,34,8.10
2019,09,29,12,35,9.60
2019,09,29,12,36,6.40
2019,09,29,12,37,9.60
2019,09,29,12,38,12.90
2019,09,29,12,39,4.80
2019,09,29,12,40,4.80
2019,09,29,12,41,4.80
2019,09,29,12,42,4.80
2019,09,29,12,43,1.60
2019,09,29,12,44,4.80
2019,09,29,12,45,3.20
2019,09,29,12,46,3.20
2019,09,29,12,47,6.40
2019,09,29,12,48,12.90
2019,09,29,12,49,4.80
2019,09,29,12,50,8.10
2019,09,29,12,51,4.80
2019,09,29,12,52,8.10
2019,09,29,12,53,8.10
2019,09,29,12,54,12.90
2019,09,29,12,55,11.30
2019,09,29,12,56,11.30
2019,09,29,12,57,6.40
2019,09,29,12,58,6.40
2019,09,29,12,59,6.40
2019,09,29,13,00,4.80
2019,09,29,13,01,4.80
2019,09,29,13,02,8.10
2019,09,29,13,03,1.60
2019,09,29,13,04,11.30
2019,09,29,13,05,12.90
2019,09,29,13,06,12.90
2019,09,29,13,07,11.30
2019,09,29,13,08,14.50
2019,09,29,13,09,12.90
2019,09,29,13,10,8.10
2019,09,29,13,11,8.10
2019,09,29,13,12,19.30
2019,09,29,13,13,6.40
2019,09,29,13,14,3.20
2019,09,29,13,15,17.70
2019,09,29,13,16,9.60
2019,09,29,13,17,14.50
2019,09,29,13,18,6.40
2019,09,29,13,19,6.40
2019,09,29,13,20,11.30
2019,09,29,13,21,6.40
2019,09,29,13,22,8.10
2019,09,29,13,23,9.60
2019,09,29,13,24,6.40
2019,09,29,13,25,6.40
2019,09,29,13,26,4.80
2019,09,29,13,27,8.10
2019,09,29,13,28,6.40
2019,09,29,13,29,11.30
2019,09,29,13,30,4.80
2019,09,29,13,31,11.30
2019,09,29,13,32,4.80
2019,09,29,13,33,6.40
2019,09,29,13,34,9.60
2019,09,29,13,35,6.40
2019,09,29,13,36,6.40
2019,09,29,13,37,6.40
2019,09,29,13,38,3.20
2019,09,29,13,39,8.10
2019,09,29,13,40,9.60
2019,09,29,13,41,9.60
2019,09,29,13,42,8.10
2019,09,29,13,43,9.60
2019,09,29,13,44,4.80
2019,09,29,13,45,3.20
2019,09,29,13,46,6.40
2019,09,29,13,47,4.80
2019,09,29,13,48,4.80
2019,09,29,13,49,9.60
2019,09,29,13,50,14.50
2019,09,29,13,51,8.10
2019,09,29,13,52,20.90
2019,09,29,13,53,22.50
2019,09,29,13,54,12.90
2019,09,29,13,55,9.60
2019,09,29,13,56,6.40
2019,09,29,13,57,8.10
2019,09,29,13,58,8.10
2019,09,29,13,59,4.80
2019,09,29,14,00,6.40
2019,09,29,14,01,12.90
2019,09,29,14,02,4.80
2019,09,29,14,03,6.40
2019,09,29,14,04,4.80
2019,09,29,14,05,6.40
2019,09,29,14,06,14.50
2019,09,29,14,07,9.60
2019,09,29,14,08,4.80
2019,09,29,14,09,6.40
2019,09,29,14,10,6.40
2019,09,29,14,11,9.60
2019,09,29,14,12,9.60
2019,09,29,14,13,6.40
2019,09,29,14,14,12.90
2019,09,29,14,15,17.70
2019,09,29,14,16,9.60
2019,09,29,14,17,3.20
2019,09,29,14,18,12.90
2019,09,29,14,19,14.50
2019,09,29,14,20,9.60
2019,09,29,14,21,12.90
2019,09,29,14,22,8.10
2019,09,29,14,23,8.10
2019,09,29,14,24,8.10
2019,09,29,14,25,4.80
2019,09,29,14,26,17.70
2019,09,29,14,27,12.90
2019,09,29,14,28,3.20
2019,09,29,14,29,3.20
2019,09,29,14,30,6.40
2019,09,29,14,31,4.80
2019,09,29,14,32,11.30
2019,09,29,14,33,22.50
2019,09,29,14,34,16.10
2019,09,29,14,35,9.60
2019,09,29,14,36,14.50
2019,09,29,14,37,4.80
2019,09,29,14,38,4.80
2019,09,29,14,39,4.80
2019,09,29,14,40,4.80
2019,09,29,14,41,9.60
2019,09,29,14,42,3.20
2019,09,29,14,43,4.80
2019,09,29,14,44,9.60
2019,09,29,14,45,14.50
2019,09,29,14,46,19.30
2019,09,29,14,47,17.70
2019,09,29,14,48,9.60
2019,09,29,14,49,11.30
2019,09,29,14,50,6.40
2019,09,29,14,51,4.80
2019,09,29,14,52,3.20
2019,09,29,14,53,11.30
2019,09,29,14,54,16.10
2019,09,29,14,55,19.30
2019,09,29,14,56,9.60
2019,09,29,14,57,11.30
2019,09,29,14,58,4.80
2019,09,29,14,59,9.60
2019,09,29,15,00,9.60
2019,09,29,15,01,17.70
2019,09,29,15,02,6.40
2019,09,29,15,03,6.40
2019,09,29,15,04,4.80
2019,09,29,15,05,8.10
2019,09,29,15,06,4.80
2019,09,29,15,07,20.90
2019,09,29,15,08,12.90
2019,09,29,15,09,11.30
2019,09,29,15,10,8.10
2019,09,29,15,11,4.80
2019,09,29,15,12,6.40
2019,09,29,15,13,16.10
2019,09,29,15,14,9.60
2019,09,29,15,15,12.90
2019,09,29,15,16,9.60
2019,09,29,15,17,11.30
2019,09,29,15,18,9.60
2019,09,29,15,19,16.10
2019,09,29,15,20,9.60
2019,09,29,15,21,12.90
2019,09,29,15,22,6.40
2019,09,29,15,23,4.80
2019,09,29,15,24,6.40
2019,09,29,15,25,6.40
2019,09,29,15,26,4.80
2019,09,29,15,27,12.90
2019,09,29,15,28,14.50
2019,09,29,15,29,9.60
2019,09,29,15,30,3.20
2019,09,29,15,31,8.10
2019,09,29,15,32,16.10
2019,09,29,15,33,17.70
2019,09,29,15,34,12.90
2019,09,29,15,35,11.30
2019,09,29,15,36,12.90
2019,09,29,15,37,11.30
2019,09,29,15,38,8.10
2019,09,29,15,39,8.10
2019,09,29,15,40,6.40
2019,09,29,15,41,6.40
2019,09,29,15,42,6.40
2019,09,29,15,43,4.80
2019,09,29,15,44,8.10
2019,09,29,15,45,6.40
2019,09,29,15,46,9.60
2019,09,29,15,47,8.10
2019,09,29,15,48,4.80
2019,09,29,15,49,4.80
2019,09,29,15,50,14.50
2019,09,29,15,51,9.60
2019,09,29,15,52,8.10
2019,09,29,15,53,3.20
2019,09,29,15,54,4.80
2019,09,29,15,55,8.10
2019,09,29,15,56,9.60
2019,09,29,15,57,4.80
2019,09,29,15,58,8.10
2019,09,29,15,59,6.40
2019,09,29,16,00,4.80
2019,09,29,16,01,9.60
2019,09,29,16,02,6.40
2019,09,29,16,03,6.40
2019,09,29,16,04,4.80
2019,09,29,16,05,6.40
2019,09,29,16,06,9.60
2019,09,29,16,07,8.10
2019,09,29,16,08,3.20
2019,09,29,16,09,11.30
2019,09,29,16,10,9.60
2019,09,29,16,11,8.10
2019,09,29,16,12,8.10
2019,09,29,16,13,6.40
2019,09,29,16,14,6.40
2019,09,29,16,15,4.80
2019,09,29,16,16,8.10
2019,09,29,16,17,6.40
2019,09,29,16,18,4.80
2019,09,29,16,19,6.40
2019,09,29,16,20,6.40
2019,09,29,16,21,3.20
2019,09,29,16,22,6.40
2019,09,29,16,23,4.80
2019,09,29,16,24,6.40
2019,09,29,16,25,6.40
2019,09,29,16,26,9.60
2019,09,29,16,27,14.50
2019,09,29,16,28,4.80
2019,09,29,16,29,8.10
2019,09,29,16,30,4.80
2019,09,29,16,31,9.60
2019,09,29,16,32,4.80
2019,09,29,16,33,6.40
2019,09,29,16,34,4.80
2019,09,29,16,35,11.30
2019,09,29,16,36,6.40
2019,09,29,16,37,4.80
2019,09,29,16,38,9.60
2019,09,29,16,39,6.40
2019,09,29,16,40,8.10
2019,09,29,16,41,8.10
2019,09,29,16,42,4.80
2019,09,29,16,43,6.40
2019,09,29,16,44,4.80
2019,09,29,16,45,4.80
2019,09,29,16,46,4.80
2019,09,29,16,47,4.80
2019,09,29,16,48,3.20
2019,09,29,16,49,6.40
2019,09,29,16,50,19.30
2019,09,29,16,51,6.40
2019,09,29,16,52,4.80
2019,09,29,16,53,9.60
2019,09,29,16,54,14.50
2019,09,29,16,55,3.20
2019,09,29,16,56,6.40
2019,09,29,16,57,6.40
2019,09,29,16,58,3.20
2019,09,29,16,59,9.60
2019,09,29,17,00,6.40
2019,09,29,17,01,4.80
2019,09,29,17,02,14.50
2019,09,29,17,03,9.60
2019,09,29,17,04,4.80
2019,09,29,17,05,4.80
2019,09,29,17,06,4.80
2019,09,29,17,07,3.20
2019,09,29,17,08,1.60
2019,09,29,17,09,1.60
2019,09,29,17,10,3.20
2019,09,29,17,11,9.60
2019,09,29,17,12,8.10
2019,09,29,17,13,4.80
2019,09,29,17,14,3.20
2019,09,29,17,15,4.80
2019,09,29,17,16,4.80
2019,09,29,17,17,6.40
2019,09,29,17,18,11.30
2019,09,29,17,19,6.40
2019,09,29,17,20,6.40
2019,09,29,17,21,6.40
2019,09,29,17,22,3.20
2019,09,29,17,23,6.40
2019,09,29,17,24,4.80
2019,09,29,17,25,4.80
2019,09,29,17,26,3.20
2019,09,29,17,27,17.70
2019,09,29,17,28,4.80
2019,09,29,17,29,3.20
2019,09,29,17,30,3.20
2019,09,29,17,31,6.40
2019,09,29,17,32,6.40
2019,09,29,17,33,6.40
2019,09,29,17,34,3.20
2019,09,29,17,35,1.60
2019,09,29,17,36,4.80
2019,09,29,17,37,6.40
2019,09,29,17,38,6.40
2019,09,29,17,39,4.80
2019,09,29,17,40,8.10
2019,09,29,17,41,3.20
2019,09,29,17,42,11.30
2019,09,29,17,43,14.50
2019,09,29,17,44,4.80
2019,09,29,17,45,8.10
2019,09,29,17,46,11.30
2019,09,29,17,47,9.60
2019,09,29,17,48,3.20
2019,09,29,17,49,4.80
2019,09,29,17,50,3.20
2019,09,29,17,51,3.20
2019,09,29,17,52,1.60
2019,09,29,17,53,4.80
2019,09,29,17,54,4.80
2019,09,29,17,55,3.20
2019,09,29,17,56,3.20
2019,09,29,17,57,6.40
2019,09,29,17,58,8.10
2019,09,29,17,59,4.80
2019,09,29,18,00,4.80
2019,09,29,18,01,4.80
2019,09,29,18,02,4.80
2019,09,29,18,03,6.40
2019,09,29,18,04,3.20
2019,09,29,18,05,4.80
2019,09,29,18,06,4.80
2019,09,29,18,07,4.80
2019,09,29,18,08,3.20
2019,09,29,18,09,3.20
2019,09,29,18,10,3.20
2019,09,29,18,11,1.60
2019,09,29,18,12,3.20
2019,09,29,18,13,1.60
2019,09,29,18,14,6.40
2019,09,29,18,15,3.20
2019,09,29,18,16,3.20
2019,09,29,18,17,3.20
2019,09,29,18,18,1.60
2019,09,29,18,19,1.60
2019,09,29,18,20,3.20
2019,09,29,18,21,3.20
2019,09,29,18,22,1.60
2019,09,29,18,23,1.60
2019,09,29,18,24,6.40
2019,09,29,18,25,4.80
2019,09,29,18,26,4.80
2019,09,29,18,27,1.60
2019,09,29,18,28,3.20
2019,09,29,18,29,3.20
2019,09,29,18,30,1.60
2019,09,29,18,31,3.20
2019,09,29,18,32,1.60
2019,09,29,18,33,1.60
2019,09,29,18,34,1.60
2019,09,29,18,35,3.20
2019,09,29,18,36,8.10
2019,09,29,18,37,11.30
2019,09,29,18,38,4.80
2019,09,29,18,39,1.60
2019,09,29,18,40,3.20
2019,09,29,18,41,4.80
2019,09,29,18,42,3.20
2019,09,29,18,43,1.60
2019,09,29,18,44,4.80
2019,09,29,18,45,3.20
2019,09,29,18,46,3.20
2019,09,29,18,47,1.60
2019,09,29,18,48,3.20
2019,09,29,18,49,1.60
2019,09,29,18,50,1.60
2019,09,29,18,51,3.20
2019,09,29,18,52,1.60
2019,09,29,18,53,3.20
2019,09,29,18,54,1.60
2019,09,29,18,56,1.60
2019,09,29,18,57,9.60
2019,09,29,18,58,8.10
2019,09,29,18,59,1.60
2019,09,29,19,00,1.60
2019,09,29,19,01,3.20
2019,09,29,19,02,3.20
2019,09,29,19,03,3.20
2019,09,29,19,04,1.60
2019,09,29,19,05,1.60
2019,09,29,19,06,1.60
2019,09,29,19,07,6.40
2019,09,29,19,08,4.80
2019,09,29,19,09,3.20
2019,09,29,19,10,1.60
2019,09,29,19,11,1.60
2019,09,29,19,12,1.60
2019,09,29,19,13,1.60
2019,09,29,19,14,1.60
2019,09,29,19,15,1.60
2019,09,29,19,16,1.60
2019,09,29,19,17,9.60
2019,09,29,19,18,3.20
2019,09,29,19,19,1.60
2019,09,29,19,20,3.20
2019,09,29,19,21,1.60
2019,09,29,19,22,9.60
2019,09,29,19,23,3.20
2019,09,29,19,24,1.60
2019,09,29,19,25,1.60
2019,09,29,19,26,1.60
2019,09,29,19,27,1.60
2019,09,29,19,28,11.30
2019,09,29,19,29,6.40
2019,09,29,19,30,1.60
2019,09,29,19,31,1.60
2019,09,29,19,32,8.10
2019,09,29,19,33,4.80
2019,09,29,19,34,3.20
2019,09,29,19,35,1.60
2019,09,29,19,36,3.20
2019,09,29,19,37,3.20
2019,09,29,19,39,3.20
2019,09,29,19,40,1.60
2019,09,29,19,41,1.60
2019,09,29,19,42,1.60
2019,09,29,19,43,3.20
2019,09,29,19,44,1.60
2019,09,29,19,46,3.20
2019,09,29,19,47,3.20
2019,09,29,19,49,3.20
2019,09,29,19,50,6.40
2019,09,29,19,51,3.20
2019,09,29,19,52,3.20
2019,09,29,19,53,4.80
2019,09,29,19,54,1.60
2019,09,29,19,55,3.20
2019,09,29,19,56,1.60
2019,09,29,19,57,6.40
2019,09,29,19,58,6.40
2019,09,29,19,59,1.60
2019,09,29,20,00,1.60
2019,09,29,20,01,1.60
2019,09,29,20,02,3.20
2019,09,29,20,03,1.60
2019,09,29,20,04,1.60
2019,09,29,20,05,1.60
2019,09,29,20,06,3.20
2019,09,29,20,07,1.60
2019,09,29,20,08,3.20
2019,09,29,20,09,3.20
2019,09,29,20,10,1.60
2019,09,29,20,11,1.60
2019,09,29,20,12,1.60
2019,09,29,20,13,3.20
2019,09,29,20,14,1.60
2019,09,29,20,15,3.20
2019,09,29,20,16,1.60
2019,09,29,20,17,1.60
2019,09,29,20,19,1.60
2019,09,29,20,20,1.60
2019,09,29,20,21,1.60
2019,09,29,20,22,3.20
2019,09,29,20,23,1.60
2019,09,29,20,24,1.60
2019,09,29,20,25,1.60
2019,09,29,20,26,1.60
2019,09,29,20,28,1.60
2019,09,29,20,29,1.60
2019,09,29,20,31,1.60
2019,09,29,20,33,1.60
2019,09,29,20,34,3.20
2019,09,29,20,35,1.60
2019,09,29,20,36,1.60
2019,09,29,20,37,1.60
2019,09,29,20,38,1.60
2019,09,29,20,39,1.60
2019,09,29,20,40,1.60
2019,09,29,20,41,1.60
2019,09,29,20,42,1.60
2019,09,29,20,43,1.60
2019,09,29,20,44,1.60
2019,09,29,20,45,1.60
2019,09,29,20,46,1.60
2019,09,29,20,47,1.60
2019,09,29,20,48,1.60
2019,09,29,20,49,1.60
2019,09,29,20,50,1.60
2019,09,29,20,52,1.60
2019,09,29,20,55,1.60
2019,09,29,20,56,1.60
2019,09,29,21,00,1.60
2019,09,29,21,06,1.60
2019,09,29,21,07,1.60
2019,09,29,21,08,1.60
2019,09,29,21,09,1.60
2019,09,29,21,10,1.60
2019,09,29,21,11,3.20
2019,09,29,21,12,1.60
2019,09,29,21,13,1.60
2019,09,29,21,14,1.60
2019,09,29,21,17,1.60
2019,09,29,21,21,1.60
2019,09,29,21,22,3.20
2019,09,29,21,24,1.60
2019,09,29,21,25,3.20
2019,09,29,21,26,3.20
2019,09,29,21,27,3.20
2019,09,29,21,28,3.20
2019,09,29,21,29,1.60
2019,09,29,21,32,1.60
2019,09,29,21,35,1.60
2019,09,29,21,36,1.60
2019,09,29,21,40,1.60
2019,09,29,21,42,1.60
2019,09,29,21,43,1.60
2019,09,29,21,44,3.20
2019,09,29,21,45,1.60
2019,09,29,21,46,1.60
2019,09,29,21,47,1.60
2019,09,29,21,56,3.20
2019,09,29,21,57,1.60
2019,09,29,21,58,1.60
2019,09,29,22,07,1.60
2019,09,29,22,19,1.60
2019,09,29,22,21,1.60
2019,09,29,22,22,1.60
2019,09,29,22,31,3.20
2019,09,29,22,32,1.60
2019,09,29,22,33,3.20
2019,09,29,22,34,3.20
2019,09,29,22,37,1.60
2019,09,29,22,38,1.60
2019,09,29,22,39,1.60
2019,09,29,22,42,1.60
2019,09,29,22,43,1.60
2019,09,29,22,44,1.60
2019,09,29,22,50,1.60
2019,09,29,22,59,3.20
2019,09,29,23,00,3.20
2019,09,29,23,01,1.60
2019,09,29,23,02,1.60
2019,09,29,23,03,1.60